Home   Weather   Lafayette   Past weeks
Flag for USA

Past Weather in Lafayette, Louisiana, USA — Yesterday and Last 2 Weeks

Now
56 °F

Clear.


Feels Like: 55 °F
Forecast: 66 / 50 °F
Wind: 5 mph from East

Location: Lafayette Regional Airport

Current Time: Dec 12, 2019 at 9:39:40 pm

Latest Report: Dec 12, 2019 at 7:53 pm


Visibility: 10 mi

Pressure: 30.13 "Hg

Humidity: 84%

Dew Point: 51 °F

Location of LafayetteLocation

Past Weather in Lafayette — Graph

°F

Lafayette Temperature Yesterday

Maximum temperature yesterday: 58 °F (at 1:53 pm)
Minimum temperature yesterday: 40 °F (at 11:53 pm)
Average temperature yesterday: 47 °F

High & Low Weather Summary for the Past Weeks

 TemperatureHumidityPressure
High81 °F (Nov 30, 12:53 pm)97% (Dec 4, 2:00 am)30.49 "Hg (Dec 4, 2:00 am)
Low35 °F (Dec 3, 3:53 am)22% (Dec 1, 12:53 pm)29.78 "Hg (Nov 30, 4:53 pm)
Average59 °F72%30.10 "Hg
* Reported Nov 27 7:53 pm — Dec 12 7:53 pm, Lafayette. Weather by CustomWeather, © 2019

Note: Actual official high and low records may vary slightly from our data, if they occured in-between our weather recording intervals... More about our weather records

Lafayette Weather History for the Previous 24 Hours

Scroll right to see more
 ConditionsComfort  
Time TempWeatherWind HumidityBarometerVisibility
7:53 pm
Thu, Dec 12
56 °FClear.5 mph84%30.13 "Hg10 mi
6:53 pm60 °FPassing clouds.3 mph65%30.14 "Hg10 mi
5:53 pm60 °FPassing clouds.No wind65%30.15 "Hg10 mi
4:53 pm62 °FScattered clouds.5 mph62%30.16 "Hg10 mi
3:53 pm65 °FScattered clouds.5 mph56%30.16 "Hg10 mi
2:53 pm65 °FSunny.3 mph56%30.16 "Hg10 mi
1:53 pm66 °FScattered clouds.3 mph52%30.19 "Hg10 mi
12:53 pm64 °FSunny.5 mph50%30.21 "Hg10 mi
11:53 am59 °FSunny.No wind51%30.26 "Hg10 mi
10:53 am56 °FSunny.3 mph51%30.29 "Hg10 mi
9:53 am51 °FSunny.6 mph54%30.31 "Hg10 mi
8:53 am47 °FSunny.3 mph59%30.31 "Hg10 mi
8:35 am46 °FBroken clouds.6 mph61%30.32 "Hg10 mi
7:53 am44 °FOvercast.6 mph63%30.32 "Hg10 mi
6:53 am42 °FMostly cloudy.6 mph71%30.32 "Hg10 mi
6:10 am41 °FOvercast.7 mph76%30.33 "Hg10 mi
5:53 am40 °FOvercast.6 mph77%30.34 "Hg10 mi
4:53 am38 °FClear.6 mph79%30.34 "Hg10 mi
3:53 am38 °FClear.6 mph79%30.34 "Hg10 mi
2:53 am39 °FClear.6 mph79%30.35 "Hg10 mi
1:53 am40 °FClear.5 mph77%30.37 "Hg10 mi
12:53 am40 °FClear.7 mph77%30.37 "Hg10 mi
11:53 pm
Wed, Dec 11
40 °FClear.6 mph77%30.38 "Hg10 mi
10:53 pm42 °FClear.7 mph73%30.40 "Hg10 mi
9:53 pm44 °FClear.6 mph65%30.41 "Hg10 mi
Weather by CustomWeather, © 2019

See weather overview

Advertising